Station Historical Data
Daily Summary for August 5, 2017 Units:  Metric    English   Both
« Previous Day
Next Day »
Daily Weekly Monthly Yearly Custom
  High: Low: Average:
Temperature: 21.8 °C 13.5 °C 17.7 °C
Dew Point: 15.3 °C 9.7 °C 12.7 °C
Humidity: 90% 48% 73%
Wind Speed: 24.1km/h 0km/h 8.4km/h
Wind Gust: 37km/h - -
Wind- - WSW
Pressure: 1016.8 hPa 1008 hPa -
Precipitation: 7.11 mm    
Historical Graphs
 
 
Tabular Data for August 5, 2017
Time Temperature Dew Point Pressure Wind Wind Speed Wind Gust Humidity Rainfall Rate (Hourly)
00:00 19.2 °C 13.8 °C 1008.4 hPa WSW 16.1 km/h 32.2 km/h 71% 0 mm
00:05 19.2 °C 13.8 °C 1008.4 hPa West 17.7 km/h 27.4 km/h 71% 0 mm
00:10 19.1 °C 13.9 °C 1008.4 hPa West 4.8 km/h 25.7 km/h 72% 0 mm
00:20 18.9 °C 13.7 °C 1008.4 hPa WSW 14.5 km/h 14.5 km/h 72% 0 mm
00:25 18.9 °C 13.9 °C 1008.4 hPa WNW 8 km/h 19.3 km/h 73% 0 mm
00:30 19 °C 14.1 °C 1008.4 hPa WSW 4.8 km/h 14.5 km/h 73% 0 mm
00:35 19 °C 14.3 °C 1008.4 hPa WSW 6.4 km/h 14.5 km/h 74% 0 mm
00:40 19.1 °C 14.7 °C 1008.4 hPa WSW 6.4 km/h 16.1 km/h 76% 0 mm
00:45 19.2 °C 14.9 °C 1008.4 hPa WSW 8 km/h 20.9 km/h 76% 0 mm
00:50 19.4 °C 14.8 °C 1008.4 hPa WSW 9.7 km/h 20.9 km/h 75% 0 mm
00:55 19.4 °C 14.9 °C 1008.4 hPa WSW 9.7 km/h 19.3 km/h 75% 0 mm
01:00 19.2 °C 14.9 °C 1008.4 hPa SSW 6.4 km/h 14.5 km/h 76% 0 mm
01:05 18.6 °C 14.5 °C 1008.4 hPa South 12.9 km/h 12.9 km/h 77% 0 mm
01:10 18.3 °C 14.4 °C 1008.4 hPa SSW 6.4 km/h 16.1 km/h 78% 0 mm
01:15 18 °C 14.3 °C 1008.7 hPa WSW 4.8 km/h 17.7 km/h 79% 0.25 mm
01:20 17.8 °C 14.3 °C 1008.7 hPa SW 6.4 km/h 14.5 km/h 80% 0.51 mm
01:25 17.6 °C 14.3 °C 1008.7 hPa SW 6.4 km/h 11.3 km/h 81% 0.51 mm
01:30 17.4 °C 14.3 °C 1008.4 hPa WNW 4.8 km/h 9.7 km/h 82% 1.02 mm
01:35 17.2 °C 14.1 °C 1008.4 hPa SSW 3.2 km/h 16.1 km/h 82% 1.78 mm
01:40 16.9 °C 14.1 °C 1008.4 hPa SW 6.4 km/h 16.1 km/h 83% 2.03 mm
01:45 16.8 °C 14.1 °C 1008.4 hPa SW 6.4 km/h 19.3 km/h 84% 2.29 mm
01:50 16.8 °C 14.1 °C 1008.4 hPa SW 8 km/h 19.3 km/h 84% 2.54 mm
01:55 16.7 °C 14 °C 1008.4 hPa SW 8 km/h 17.7 km/h 84% 2.54 mm
02:00 16.7 °C 13.9 °C 1008.4 hPa SW 8 km/h 17.7 km/h 84% 2.54 mm
02:05 16.6 °C 14.1 °C 1008.4 hPa SW 8 km/h 22.5 km/h 85% 2.79 mm
02:10 16.6 °C 14 °C 1008.4 hPa SW 6.4 km/h 22.5 km/h 85% 3.05 mm
02:15 16.5 °C 13.9 °C 1008.4 hPa SW 6.4 km/h 17.7 km/h 85% 2.79 mm
02:20 16.4 °C 13.9 °C 1008.4 hPa SW 4.8 km/h 17.7 km/h 85% 2.79 mm
02:25 16.4 °C 14.1 °C 1008.4 hPa SW 8 km/h 17.7 km/h 86% 3.05 mm
02:30 16.4 °C 14.1 °C 1008.4 hPa SSW 4.8 km/h 16.1 km/h 86% 2.54 mm
02:35 16.3 °C 13.8 °C 1008.4 hPa SSW 1.6 km/h 11.3 km/h 85% 1.78 mm
02:40 16.3 °C 14 °C 1008.4 hPa SW 1.6 km/h 11.3 km/h 86% 1.52 mm
02:45 16.3 °C 13.8 °C 1008.4 hPa SW 4.8 km/h 14.5 km/h 85% 1.27 mm
02:50 16.3 °C 13.8 °C 1008.4 hPa SW 6.4 km/h 14.5 km/h 85% 1.02 mm
02:55 16.2 °C 13.7 °C 1008.4 hPa SW 6.4 km/h 12.9 km/h 85% 1.02 mm
03:00 16.2 °C 13.7 °C 1008.4 hPa SW 6.4 km/h 12.9 km/h 85% 1.27 mm
03:05 16.2 °C 13.7 °C 1008.4 hPa SW 8 km/h 14.5 km/h 85% 1.02 mm
03:10 16.1 °C 13.8 °C 1008 hPa SSW 8 km/h 16.1 km/h 86% 0.76 mm
03:15 16.1 °C 13.8 °C 1008 hPa SW 9.7 km/h 19.3 km/h 86% 0.76 mm
03:20 16 °C 13.7 °C 1008.4 hPa SW 9.7 km/h 24.1 km/h 86% 0.76 mm
03:25 15.9 °C 13.6 °C 1008.4 hPa South 6.4 km/h 22.5 km/h 86% 0.51 mm
03:30 15.8 °C 13.7 °C 1008 hPa SW 11.3 km/h 14.5 km/h 87% 0.76 mm
03:35 15.8 °C 13.6 °C 1008 hPa SW 12.9 km/h 17.7 km/h 87% 0.76 mm
03:40 15.8 °C 13.6 °C 1008.4 hPa SSW 11.3 km/h 19.3 km/h 87% 0.76 mm
03:45 15.8 °C 13.6 °C 1008.4 hPa SW 8 km/h 20.9 km/h 87% 1.02 mm
03:50 15.7 °C 13.6 °C 1008.4 hPa SSW 3.2 km/h 22.5 km/h 87% 1.27 mm
03:55 15.7 °C 13.6 °C 1008.4 hPa SSW 4.8 km/h 14.5 km/h 87% 1.27 mm
04:00 15.7 °C 13.7 °C 1008.4 hPa South 4.8 km/h 12.9 km/h 88% 1.02 mm
04:05 15.6 °C 13.6 °C 1008.4 hPa SW 9.7 km/h 16.1 km/h 88% 1.02 mm
04:10 15.6 °C 13.6 °C 1008.4 hPa South 9.7 km/h 16.1 km/h 88% 1.02 mm
04:15 15.6 °C 13.4 °C 1008.4 hPa WSW 6.4 km/h 12.9 km/h 87% 1.27 mm
04:20 15.6 °C 13.4 °C 1008.4 hPa SSW 6.4 km/h 25.7 km/h 87% 1.27 mm
04:25 15.5 °C 13.3 °C 1008.4 hPa SSW 8 km/h 25.7 km/h 87% 1.27 mm
04:30 15.5 °C 13.3 °C 1008.4 hPa SSW 8 km/h 19.3 km/h 87% 1.02 mm
04:35 15.4 °C 13.3 °C 1008.4 hPa SSW 6.4 km/h 14.5 km/h 87% 1.02 mm
04:40 15.4 °C 13.3 °C 1008.4 hPa SW 3.2 km/h 19.3 km/h 87% 1.02 mm
04:45 15.4 °C 13.3 °C 1008.4 hPa SSW 8 km/h 14.5 km/h 87% 1.02 mm
04:50 15.4 °C 13.3 °C 1008.4 hPa SSW 6.4 km/h 16.1 km/h 87% 0.76 mm
04:55 15.4 °C 13.2 °C 1008.4 hPa SW 6.4 km/h 17.7 km/h 87% 0.76 mm
05:00 15.4 °C 13.2 °C 1008.4 hPa WSW 3.2 km/h 17.7 km/h 87% 0.76 mm
05:05 15.3 °C 13.3 °C 1008.4 hPa SW 11.3 km/h 17.7 km/h 88% 0.76 mm
05:10 15.4 °C 13.2 °C 1008.4 hPa WSW 3.2 km/h 12.9 km/h 87% 0.76 mm
05:15 15.4 °C 13.2 °C 1008.4 hPa South 8 km/h 14.5 km/h 87% 0.51 mm
05:20 15.3 °C 13.2 °C 1008.4 hPa SSW 6.4 km/h 22.5 km/h 87% 0.25 mm
05:25 15.3 °C 13.2 °C 1008.4 hPa SSW 8 km/h 22.5 km/h 87% 0.25 mm
05:30 15.4 °C 13.1 °C 1008.4 hPa SSW 8 km/h 20.9 km/h 86% 0.25 mm
05:35 15.4 °C 12.9 °C 1008.4 hPa SSW 8 km/h 20.9 km/h 85% 0.25 mm
05:40 15.4 °C 12.9 °C 1008.4 hPa SSW 8 km/h 22.5 km/h 85% 0.25 mm
05:45 15.4 °C 12.9 °C 1008.4 hPa SSW 9.7 km/h 24.1 km/h 85% 0 mm
05:50 15.5 °C 12.8 °C 1008.4 hPa SSW 9.7 km/h 24.1 km/h 84% 0 mm
05:55 15.5 °C 13 °C 1008.4 hPa SSW 12.9 km/h 27.4 km/h 85% 0 mm
06:00 15.4 °C 12.9 °C 1008.4 hPa South 8 km/h 29 km/h 85% 0.25 mm
06:05 15.3 °C 13 °C 1008.4 hPa SSW 12.9 km/h 17.7 km/h 86% 0.25 mm
06:10 15.3 °C 12.9 °C 1008.4 hPa SE 11.3 km/h 25.7 km/h 86% 0.25 mm
06:15 15.3 °C 12.9 °C 1008.7 hPa South 11.3 km/h 29 km/h 86% 0.25 mm
06:20 15.2 °C 12.9 °C 1008.7 hPa South 4.8 km/h 25.7 km/h 86% 0.25 mm
06:25 15.2 °C 12.8 °C 1008.7 hPa SSW 9.7 km/h 29 km/h 86% 0.25 mm
06:30 15.1 °C 12.8 °C 1009 hPa SSW 8 km/h 29 km/h 86% 0.25 mm
06:35 15.1 °C 12.9 °C 1009 hPa SW 8 km/h 20.9 km/h 87% 0.76 mm
06:40 15.1 °C 12.9 °C 1009 hPa SW 8 km/h 20.9 km/h 87% 1.02 mm
06:45 15 °C 13 °C 1009.4 hPa WSW 6.4 km/h 14.5 km/h 88% 1.02 mm
06:50 15 °C 13 °C 1009.4 hPa Calm   6.4 km/h 88% 1.02 mm
06:55 15.1 °C 13.3 °C 1009.4 hPa SW 3.2 km/h 9.7 km/h 89% 1.02 mm
07:00 15.1 °C 13.3 °C 1009.4 hPa SW 3.2 km/h 9.7 km/h 89% 0.76 mm
07:05 15.2 °C 13.4 °C 1009.4 hPa Calm   11.3 km/h 89% 0.76 mm
07:10 15.3 °C 13.7 °C 1009.4 hPa Calm   4.8 km/h 90% 0.76 mm
07:15 15.4 °C 13.8 °C 1009.4 hPa Calm   4.8 km/h 90% 0.76 mm
07:20 15.5 °C 13.9 °C 1009.4 hPa SW 1.6 km/h 4.8 km/h 90% 0.76 mm
07:25 15.5 °C 13.7 °C 1009.4 hPa West 1.6 km/h 8 km/h 89% 0.76 mm
07:30 15.6 °C 13.7 °C 1009.7 hPa West 3.2 km/h 8 km/h 89% 0.76 mm
07:35 15.7 °C 13.8 °C 1009.7 hPa West 3.2 km/h 11.3 km/h 89% 0.25 mm
07:40 15.8 °C 13.8 °C 1009.7 hPa West 4.8 km/h 11.3 km/h 88% 0 mm
07:45 16 °C 13.8 °C 1009.7 hPa West 4.8 km/h 9.7 km/h 87% 0 mm
07:50 16.1 °C 13.9 °C 1010 hPa WNW 11.3 km/h 12.9 km/h 87% 0 mm
07:55 16.2 °C 13.8 °C 1010 hPa West 4.8 km/h 11.3 km/h 86% 0 mm
08:00 16.1 °C 13.8 °C 1010 hPa West 4.8 km/h 11.3 km/h 86% 0 mm
08:05 16.1 °C 13.6 °C 1010 hPa WNW 6.4 km/h 11.3 km/h 85% 0.25 mm
08:10 15.9 °C 13.6 °C 1010 hPa West 9.7 km/h 16.1 km/h 86% 0.25 mm
08:15 15.9 °C 13.4 °C 1010 hPa WSW 4.8 km/h 16.1 km/h 85% 0.25 mm
08:20 15.9 °C 13.2 °C 1010 hPa WNW 3.2 km/h 17.7 km/h 84% 0.25 mm
08:25 15.9 °C 13.2 °C 1010.4 hPa WSW 3.2 km/h 17.7 km/h 84% 0.25 mm
08:30 16 °C 13.1 °C 1010.4 hPa SW 4.8 km/h 9.7 km/h 83% 0.25 mm
08:35 16.2 °C 13.3 °C 1010.4 hPa WSW 4.8 km/h 12.9 km/h 83% 0.25 mm
08:40 16.4 °C 13.3 °C 1010.4 hPa West 6.4 km/h 12.9 km/h 82% 0.25 mm
08:45 16.6 °C 13.5 °C 1010.4 hPa West 8 km/h 12.9 km/h 82% 0.25 mm
08:50 16.7 °C 13.4 °C 1010.4 hPa West 6.4 km/h 17.7 km/h 81% 0.25 mm
08:55 16.9 °C 13.4 °C 1010.4 hPa West 8 km/h 14.5 km/h 80% 0.25 mm
09:00 17.2 °C 13.7 °C 1010.4 hPa WSW 6.4 km/h 9.7 km/h 80% 0.25 mm
09:05 17.1 °C 13.4 °C 1010.7 hPa West 6.4 km/h 12.9 km/h 79% 0 mm
09:10 17.1 °C 13.2 °C 1010.7 hPa West 6.4 km/h 16.1 km/h 78% 0 mm
09:15 17.1 °C 13.1 °C 1010.7 hPa West 4.8 km/h 16.1 km/h 77% 0 mm
09:20 17.2 °C 13.2 °C 1010.7 hPa West 3.2 km/h 16.1 km/h 77% 0 mm
09:25 17.3 °C 12.8 °C 1010.7 hPa WNW 11.3 km/h 19.3 km/h 75% 0 mm
09:30 17.5 °C 13 °C 1011.1 hPa West 16.1 km/h 20.9 km/h 75% 0 mm
09:35 17.6 °C 12.9 °C 1011.1 hPa West 3.2 km/h 19.3 km/h 74% 0 mm
09:40 17.6 °C 12.4 °C 1011.1 hPa West 11.3 km/h 22.5 km/h 72% 0 mm
09:45 17.5 °C 12.4 °C 1011.1 hPa West 11.3 km/h 22.5 km/h 72% 0 mm
09:50 17.6 °C 12.3 °C 1011.1 hPa WNW 17.7 km/h 24.1 km/h 71% 0 mm
09:55 17.8 °C 12.7 °C 1011.1 hPa West 4.8 km/h 17.7 km/h 72% 0 mm
10:00 18 °C 12.7 °C 1011.1 hPa NNW 6.4 km/h 14.5 km/h 71% 0 mm
10:05 17.9 °C 12.3 °C 1011.1 hPa West 11.3 km/h 24.1 km/h 70% 0 mm
10:10 17.9 °C 12.6 °C 1011.1 hPa WSW 9.7 km/h 24.1 km/h 71% 0 mm
10:15 18.1 °C 12.7 °C 1011.1 hPa West 11.3 km/h 25.7 km/h 71% 0 mm
10:20 18.1 °C 12.7 °C 1011.4 hPa West 11.3 km/h 25.7 km/h 71% 0 mm
10:25 18.1 °C 12.9 °C 1011.4 hPa West 11.3 km/h 25.7 km/h 72% 0 mm
10:30 18.2 °C 13.1 °C 1011.4 hPa West 12.9 km/h 30.6 km/h 72% 0 mm
10:35 18.3 °C 13.2 °C 1011.4 hPa SSW 12.9 km/h 24.1 km/h 72% 0 mm
10:40 18.6 °C 13.2 °C 1011.4 hPa WNW 8 km/h 22.5 km/h 71% 0 mm
10:45 19.8 °C 14.2 °C 1011.7 hPa West 9.7 km/h 25.7 km/h 70% 0 mm
10:50 19.1 °C 13.2 °C 1011.7 hPa WNW 11.3 km/h 29 km/h 69% 0 mm
10:55 18.7 °C 13.3 °C 1011.7 hPa WNW 6.4 km/h 24.1 km/h 71% 0 mm
11:00 18.5 °C 12.9 °C 1011.7 hPa West 12.9 km/h 24.1 km/h 70% 0 mm
11:05 18.3 °C 13.2 °C 1011.7 hPa West 16.1 km/h 19.3 km/h 72% 0 mm
11:10 18.2 °C 13.3 °C 1011.7 hPa West 11.3 km/h 27.4 km/h 73% 0 mm
11:15 18.3 °C 13.3 °C 1012.1 hPa West 11.3 km/h 30.6 km/h 73% 0 mm
11:20 18.6 °C 13.4 °C 1012.1 hPa West 11.3 km/h 30.6 km/h 72% 0 mm
11:25 18.8 °C 13.2 °C 1011.7 hPa West 11.3 km/h 25.7 km/h 70% 0 mm
11:30 18.8 °C 12.9 °C 1012.1 hPa WSW 14.5 km/h 29 km/h 69% 0 mm
11:35 18.9 °C 13.3 °C 1012.1 hPa West 16.1 km/h 24.1 km/h 70% 0 mm
11:40 19 °C 13.2 °C 1012.1 hPa West 11.3 km/h 24.1 km/h 69% 0 mm
11:45 19.1 °C 13.3 °C 1012.1 hPa West 6.4 km/h 25.7 km/h 69% 0 mm
11:50 19.2 °C 13.3 °C 1012.1 hPa WNW 8 km/h 24.1 km/h 69% 0 mm
11:55 18.9 °C 13.1 °C 1012.1 hPa WSW 3.2 km/h 27.4 km/h 69% 0 mm
12:00 18.6 °C 13 °C 1012.1 hPa West 9.7 km/h 25.7 km/h 70% 0 mm
12:05 18.5 °C 12.9 °C 1012.1 hPa WSW 24.1 km/h 27.4 km/h 70% 0 mm
12:10 19.3 °C 13.4 °C 1012.1 hPa West 12.9 km/h 30.6 km/h 69% 0 mm
12:15 19.4 °C 13.2 °C 1012.1 hPa WSW 12.9 km/h 30.6 km/h 67% 0 mm
12:20 19.1 °C 13.2 °C 1012.4 hPa West 12.9 km/h 25.7 km/h 69% 0 mm
12:25 18.7 °C 13.1 °C 1012.4 hPa West 12.9 km/h 25.7 km/h 70% 0 mm
12:30 18.4 °C 12.7 °C 1012.4 hPa WSW 12.9 km/h 33.8 km/h 69% 0 mm
12:35 18.2 °C 12.7 °C 1012.4 hPa WSW 19.3 km/h 27.4 km/h 70% 0 mm
12:40 18.4 °C 13.3 °C 1012.4 hPa West 11.3 km/h 27.4 km/h 72% 0 mm
12:45 18.6 °C 13.1 °C 1012.4 hPa West 11.3 km/h 25.7 km/h 70% 0 mm
12:50 18.6 °C 13.2 °C 1012.4 hPa WSW 11.3 km/h 25.7 km/h 71% 0 mm
12:55 18.8 °C 13.4 °C 1012.4 hPa WSW 11.3 km/h 22.5 km/h 71% 0 mm
13:00 18.7 °C 13.1 °C 1012.4 hPa WSW 12.9 km/h 29 km/h 70% 0 mm
13:05 18.6 °C 13.2 °C 1012.4 hPa SSW 11.3 km/h 25.7 km/h 71% 0 mm
13:10 18.8 °C 13.7 °C 1012.4 hPa WSW 11.3 km/h 25.7 km/h 72% 0 mm
13:15 19.5 °C 13.9 °C 1012.4 hPa WSW 9.7 km/h 19.3 km/h 70% 0 mm
13:20 19.4 °C 13.6 °C 1012.4 hPa WSW 16.1 km/h 25.7 km/h 69% 0 mm
13:25 19.1 °C 13.3 °C 1012.4 hPa West 9.7 km/h 29 km/h 69% 0 mm
13:30 19.1 °C 13.4 °C 1012.4 hPa WSW 9.7 km/h 22.5 km/h 70% 0 mm
13:35 18.8 °C 13.2 °C 1012.4 hPa SW 11.3 km/h 20.9 km/h 70% 0 mm
13:40 18.6 °C 13.4 °C 1012.4 hPa West 9.7 km/h 22.5 km/h 72% 0 mm
13:45 18.1 °C 13.2 °C 1012.8 hPa West 11.3 km/h 24.1 km/h 73% 0 mm
13:50 17.3 °C 13.7 °C 1012.8 hPa West 12.9 km/h 30.6 km/h 79% 0.25 mm
13:55 16.7 °C 13.6 °C 1012.4 hPa West 11.3 km/h 30.6 km/h 82% 0.25 mm
14:00 16.7 °C 13.6 °C 1012.8 hPa West 9.7 km/h 20.9 km/h 82% 0.25 mm
14:05 17.3 °C 14.2 °C 1012.8 hPa West 9.7 km/h 20.9 km/h 82% 0.25 mm
14:10 18.4 °C 15.3 °C 1012.8 hPa WSW 4.8 km/h 14.5 km/h 82% 0.25 mm
14:15 18.7 °C 14.8 °C 1012.8 hPa West 8 km/h 16.1 km/h 78% 0.25 mm
14:20 19.3 °C 14.7 °C 1012.8 hPa WSW 6.4 km/h 24.1 km/h 75% 0.25 mm
14:25 19.8 °C 14.2 °C 1012.8 hPa WNW 12.9 km/h 19.3 km/h 70% 0.25 mm
14:30 20.3 °C 15.3 °C 1012.8 hPa WNW 14.5 km/h 14.5 km/h 73% 0.25 mm
14:35 19.9 °C 14.1 °C 1012.8 hPa West 19.3 km/h 24.1 km/h 69% 0.25 mm
14:40 19.6 °C 13.7 °C 1012.8 hPa WNW 17.7 km/h 25.7 km/h 69% 0.25 mm
14:45 19.2 °C 13.4 °C 1012.8 hPa West 11.3 km/h 27.4 km/h 69% 0.25 mm
14:50 18.8 °C 13.7 °C 1013.1 hPa West 11.3 km/h 27.4 km/h 72% 0 mm
14:55 18.5 °C 13.8 °C 1013.1 hPa WSW 16.1 km/h 24.1 km/h 74% 0 mm
15:00 18.6 °C 13.9 °C 1013.1 hPa West 9.7 km/h 19.3 km/h 74% 0 mm
15:05 19.1 °C 14.3 °C 1013.1 hPa WSW 8 km/h 19.3 km/h 74% 0 mm
15:10 20 °C 14.6 °C 1013.1 hPa SW 8 km/h 17.7 km/h 71% 0 mm
15:15 20.3 °C 14.4 °C 1013.1 hPa SW 6.4 km/h 25.7 km/h 69% 0 mm
15:20 20.7 °C 14.6 °C 1013.1 hPa WSW 12.9 km/h 27.4 km/h 68% 0 mm
15:25 20.9 °C 14.6 °C 1013.1 hPa West 9.7 km/h 30.6 km/h 67% 0 mm
15:30 20.6 °C 13.7 °C 1013.1 hPa West 22.5 km/h 29 km/h 65% 0 mm
15:35 20.9 °C 14.1 °C 1013.1 hPa West 4.8 km/h 22.5 km/h 65% 0 mm
15:40 20.6 °C 14.1 °C 1013.1 hPa SW 14.5 km/h 25.7 km/h 66% 0 mm
15:45 20.8 °C 13.9 °C 1013.1 hPa WNW 9.7 km/h 25.7 km/h 65% 0 mm
15:50 20.7 °C 13.9 °C 1013.1 hPa WSW 12.9 km/h 29 km/h 65% 0 mm
15:55 20.8 °C 13.9 °C 1013.1 hPa WSW 12.9 km/h 29 km/h 65% 0 mm
16:00 20.4 °C 13.7 °C 1013.4 hPa WSW 14.5 km/h 27.4 km/h 65% 0 mm
16:05 20.1 °C 13.3 °C 1013.4 hPa West 19.3 km/h 33.8 km/h 65% 0 mm
16:10 20 °C 13.4 °C 1013.4 hPa SW 6.4 km/h 24.1 km/h 66% 0 mm
16:15 20.2 °C 13.4 °C 1013.4 hPa West 14.5 km/h 20.9 km/h 65% 0 mm
16:20 20.9 °C 13.6 °C 1013.4 hPa WNW 17.7 km/h 30.6 km/h 63% 0 mm
16:25 21.3 °C 14.2 °C 1013.4 hPa WSW 14.5 km/h 30.6 km/h 64% 0 mm
16:30 21.4 °C 14.1 °C 1013.8 hPa WSW 14.5 km/h 29 km/h 63% 0 mm
16:35 20.7 °C 13.9 °C 1013.8 hPa WNW 12.9 km/h 27.4 km/h 65% 0 mm
16:40 21 °C 13.7 °C 1013.8 hPa WSW 11.3 km/h 35.4 km/h 63% 0 mm
16:45 20.7 °C 13.6 °C 1013.8 hPa SW 16.1 km/h 20.9 km/h 64% 0 mm
16:50 20.2 °C 12.9 °C 1013.8 hPa SW 20.9 km/h 29 km/h 63% 0 mm
16:55 20.2 °C 13.2 °C 1013.8 hPa WSW 16.1 km/h 29 km/h 64% 0 mm
17:00 20.2 °C 13.1 °C 1013.8 hPa WSW 14.5 km/h 29 km/h 64% 0 mm
17:05 20.2 °C 13.4 °C 1013.8 hPa WSW 14.5 km/h 29 km/h 65% 0 mm
17:10 20.3 °C 13.8 °C 1014.1 hPa West 12.9 km/h 24.1 km/h 66% 0 mm
17:15 20.4 °C 13.2 °C 1014.1 hPa WSW 14.5 km/h 24.1 km/h 63% 0 mm
17:20 20.5 °C 13.2 °C 1014.1 hPa WNW 9.7 km/h 17.7 km/h 63% 0 mm
17:25 20.4 °C 12.9 °C 1014.1 hPa West 11.3 km/h 22.5 km/h 62% 0 mm
17:30 20.9 °C 13.1 °C 1014.1 hPa West 11.3 km/h 22.5 km/h 61% 0 mm
17:35 21.6 °C 12.7 °C 1014.1 hPa West 11.3 km/h 19.3 km/h 57% 0 mm
17:40 21.8 °C 12.1 °C 1014.1 hPa West 14.5 km/h 27.4 km/h 54% 0 mm
17:45 21.7 °C 11.7 °C 1014.1 hPa West 14.5 km/h 29 km/h 53% 0 mm
17:50 21.7 °C 10.8 °C 1014.1 hPa West 11.3 km/h 33.8 km/h 50% 0 mm
17:55 21.7 °C 10.8 °C 1014.4 hPa WNW 12.9 km/h 35.4 km/h 50% 0 mm
18:00 21.8 °C 10.6 °C 1014.1 hPa WNW 8 km/h 22.5 km/h 49% 0 mm
18:05 21.8 °C 10.3 °C 1014.1 hPa West 12.9 km/h 20.9 km/h 48% 0 mm
18:10 21.6 °C 10.4 °C 1014.4 hPa West 19.3 km/h 29 km/h 49% 0 mm
18:15 21.5 °C 10 °C 1014.4 hPa West 12.9 km/h 27.4 km/h 48% 0 mm
18:20 21.4 °C 10.2 °C 1014.4 hPa NW 12.9 km/h 30.6 km/h 49% 0 mm
18:25 21.3 °C 9.8 °C 1014.4 hPa West 16.1 km/h 25.7 km/h 48% 0 mm
18:30 21.2 °C 10 °C 1014.4 hPa WNW 9.7 km/h 25.7 km/h 49% 0 mm
18:35 21.1 °C 9.9 °C 1014.4 hPa WNW 16.1 km/h 35.4 km/h 49% 0 mm
18:40 20.9 °C 9.8 °C 1014.4 hPa WNW 16.1 km/h 35.4 km/h 49% 0 mm
18:45 20.8 °C 10.3 °C 1014.8 hPa West 14.5 km/h 30.6 km/h 51% 0 mm
18:50 20.8 °C 10.3 °C 1014.4 hPa WSW 14.5 km/h 22.5 km/h 51% 0 mm
18:55 20.7 °C 10.5 °C 1014.8 hPa NW 11.3 km/h 22.5 km/h 52% 0 mm
19:00 20.8 °C 10.6 °C 1014.8 hPa WNW 12.9 km/h 25.7 km/h 52% 0 mm
19:05 20.8 °C 10 °C 1014.8 hPa West 12.9 km/h 37 km/h 50% 0 mm
19:10 20.7 °C 9.9 °C 1014.8 hPa West 11.3 km/h 25.7 km/h 50% 0 mm
19:15 20.5 °C 9.7 °C 1014.8 hPa West 8 km/h 29 km/h 50% 0 mm
19:20 20.4 °C 10.2 °C 1015.1 hPa West 14.5 km/h 22.5 km/h 52% 0 mm
19:25 20.3 °C 10.1 °C 1015.1 hPa West 9.7 km/h 19.3 km/h 52% 0 mm
19:30 20.2 °C 10 °C 1015.1 hPa West 9.7 km/h 19.3 km/h 52% 0 mm
19:35 20.1 °C 10.2 °C 1015.1 hPa West 9.7 km/h 17.7 km/h 53% 0 mm
19:40 20 °C 10.1 °C 1015.1 hPa West 8 km/h 17.7 km/h 53% 0 mm
19:45 19.8 °C 10.5 °C 1015.5 hPa West 9.7 km/h 22.5 km/h 55% 0 mm
19:50 19.7 °C 10.4 °C 1015.5 hPa West 9.7 km/h 16.1 km/h 55% 0 mm
19:55 19.6 °C 10.3 °C 1015.5 hPa NW 11.3 km/h 24.1 km/h 55% 0 mm
20:00 19.5 °C 10.2 °C 1015.8 hPa NW 6.4 km/h 19.3 km/h 55% 0 mm
20:05 19.4 °C 10.4 °C 1015.5 hPa WNW 8 km/h 19.3 km/h 56% 0 mm
20:10 19.2 °C 10.2 °C 1015.5 hPa WNW 8 km/h 16.1 km/h 56% 0 mm
20:15 19.1 °C 10.4 °C 1015.5 hPa NW 6.4 km/h 16.1 km/h 57% 0 mm
20:20 19 °C 10.3 °C 1015.5 hPa WNW 3.2 km/h 12.9 km/h 57% 0 mm
20:25 18.8 °C 10.1 °C 1015.5 hPa West 8 km/h 14.5 km/h 57% 0 mm
20:30 18.7 °C 10.3 °C 1015.8 hPa West 8 km/h 16.1 km/h 58% 0 mm
20:35 18.7 °C 10.2 °C 1015.8 hPa WNW 4.8 km/h 12.9 km/h 58% 0 mm
20:40 18.5 °C 10.1 °C 1015.8 hPa WNW 6.4 km/h 12.9 km/h 58% 0 mm
20:45 18.4 °C 10.3 °C 1015.8 hPa WNW 6.4 km/h 16.1 km/h 59% 0 mm
20:50 18.4 °C 10.2 °C 1015.8 hPa WNW 6.4 km/h 12.9 km/h 59% 0 mm
20:55 18.2 °C 10.1 °C 1015.8 hPa WNW 9.7 km/h 12.9 km/h 59% 0 mm
21:00 18.2 °C 10.3 °C 1015.8 hPa WNW 3.2 km/h 12.9 km/h 60% 0 mm
21:05 17.9 °C 10.1 °C 1015.8 hPa WNW 3.2 km/h 8 km/h 60% 0 mm
21:10 17.8 °C 10.2 °C 1015.8 hPa WNW 3.2 km/h 8 km/h 61% 0 mm
21:15 17.8 °C 10.4 °C 1015.8 hPa West 3.2 km/h 8 km/h 62% 0 mm
21:20 17.5 °C 10.1 °C 1015.8 hPa West 3.2 km/h 8 km/h 62% 0 mm
21:25 17.3 °C 10.2 °C 1015.8 hPa Calm   3.2 km/h 63% 0 mm
21:30 17.1 °C 10.2 °C 1015.8 hPa Calm   3.2 km/h 64% 0 mm
21:35 16.8 °C 10.2 °C 1015.8 hPa Calm   4.8 km/h 65% 0 mm
21:40 16.7 °C 10.3 °C 1016.1 hPa Calm   4.8 km/h 66% 0 mm
21:45 16.4 °C 10.4 °C 1015.8 hPa Calm     68% 0 mm
21:50 16.1 °C 10.2 °C 1016.1 hPa Calm     68% 0 mm
21:55 15.9 °C 10.4 °C 1016.1 hPa Calm     70% 0 mm
22:00 15.7 °C 10.4 °C 1016.1 hPa Calm     71% 0 mm
22:05 15.4 °C 10.2 °C 1016.1 hPa Calm     71% 0 mm
22:10 15.2 °C 10.2 °C 1016.1 hPa Calm     72% 0 mm
22:15 15.1 °C 10.3 °C 1016.1 hPa Calm     73% 0 mm
22:20 14.9 °C 10.3 °C 1016.1 hPa Calm     74% 0 mm
22:25 14.7 °C 10.3 °C 1016.5 hPa Calm     75% 0 mm
22:30 14.6 °C 10.2 °C 1016.5 hPa Calm     75% 0 mm
22:35 14.5 °C 10.3 °C 1016.5 hPa Calm     76% 0 mm
22:40 14.4 °C 10.2 °C 1016.5 hPa Calm     76% 0 mm
22:45 14.4 °C 10.3 °C 1016.5 hPa Calm   3.2 km/h 76% 0 mm
22:50 14.5 °C 10.3 °C 1016.5 hPa Calm     76% 0 mm
22:55 14.6 °C 10.4 °C 1016.5 hPa Calm     76% 0 mm
23:00 14.5 °C 10.3 °C 1016.5 hPa Calm     76% 0 mm
23:05 14.3 °C 10.3 °C 1016.5 hPa Calm     77% 0 mm
23:10 14.3 °C 10.3 °C 1016.5 hPa Calm     77% 0 mm
23:15 14.2 °C 10.2 °C 1016.5 hPa Calm     77% 0 mm
23:20 14.1 °C 10.3 °C 1016.8 hPa Calm     78% 0 mm
23:25 14.1 °C 10.3 °C 1016.8 hPa Calm     78% 0 mm
23:30 13.9 °C 10.2 °C 1016.5 hPa Calm     78% 0 mm
23:35 13.8 °C 10.3 °C 1016.5 hPa Calm     79% 0 mm
23:45 13.7 °C 10.1 °C 1016.5 hPa Calm     79% 0 mm
23:50 13.6 °C 10 °C 1016.5 hPa Calm     79% 0 mm
23:55 13.5 °C 9.9 °C 1016.5 hPa Calm     79% 0 mm
Buffalo, New York, USA
Compliments of Weather Underground - 2.5 mb